Regional Weather Roundup
Issued by NWS Goodland, KS

Home | Current Version | Previous Version | Text Only | Print | Product List | Glossary Off
Versions: 1 2 3 4 5 6 7 8 9 10 11 12 13 14 15 16 17 18 19 20 21 22 23 24 25 26 27 28 29 30 31 32 33 34 35 36 37 38 39 40 41 42 43 44 45 46 47 48 49 50

000
ASUS43 KGLD 220208
RWRGLD

GOODLAND FORECAST AREA HOURLY WEATHER ROUNDUP
NATIONAL WEATHER SERVICE GOODLAND KS
800 PM MDT TUE OCT 21 2014

...OFFICIAL OBSERVATIONS...

CITY           SKY/WX    TMP DP  RH WIND       PRES   REMARKS
GOODLAND KS    CLEAR     62  46  55 S14       29.94R
HILL CITY KS   CLEAR     69  53  56 S10       29.95S
IMPERIAL NEB   PTCLDY    65  49  56 SE10      29.90R
MCCOOK NEB     PTCLDY    68  54  60 SE15      29.92R
AKRON CO       CLEAR     61  40  45 S13       29.91R
BURLINGTON CO  CLEAR     64  42  44 S15       29.95R
LIMON CO       PTCLDY    52  38  58 CALM      29.96R
$$

...UNOFFICIAL OBSERVATIONS...

CITY           SKY/WX    TMP DP  RH WIND       PRES   REMARKS
COLBY KS       CLEAR     66  54  63 SE15      29.95S
GOVE KS          N/A     64  32  30 MISG        N/A
NORTON KS      CLEAR     68  54  60 SE9       29.94R
SHARON SPRINGS   N/A     62  47  58 S10         N/A
TRENTON NEB      N/A     67  32  27 S15         N/A
KIT CARSON CO    N/A     64  45  50 N12G18      N/A
YUMA CO          N/A     57  39  52 CALM        N/A
$$



USA.gov is the U.S. government's official web portal to all federal, state and local government web resources and services.